[[{"header":{"parameterUnit":"m.s-1","parameterCategory":1,"la1":30.2991,"la2":30.254,"lo1":-89.0895,"lo2":-89.0444,"dy":0.0017,"dx":0.0017,"nx":28,"ny":28,"refTime":"2024-02-26T09:00:00:Z","depth":0,"parameterNumber":2,"parameterNumberName":"U-component_of_WINDS"},"data":[0,0,0,0,0,0,0,0,0,0,0,0,0,0,0,0,0,0,0,0,0,0,0,0,0,0,0,0,0,0,0,0,0,0,0,0,0,0,0,0,0,0,0,0,0,0,0,0,0,0,0,0,0,0,0,0,0,0,1.5797,1.5798,0,1.5922,1.5923,1.5924,1.5926,1.5924,1.5922,1.5921,1.6056,1.6061,1.6066,0,0,0,0,0,0,0,0,0,0,0,0,0,1.5567,1.5572,1.5797,1.5798,1.58,1.5921,1.5923,1.5925,1.5926,1.5924,1.5922,1.592,1.6055,1.6061,1.6067,0,0,0,0,0,0,0,0,0,0,0,0,0,1.5677,1.5573,1.5796,1.5815,1.5818,1.5921,1.5923,1.5925,1.5926,1.5924,1.5921,1.5919,1.6053,1.606,1.6068,1.6164,0,0,1.6091,1.6095,0,0,0,0,0,0,0,0,1.5671,1.5686,1.5811,1.5814,1.5817,1.5905,1.5892,1.6006,1.5927,1.5885,1.5921,1.5918,1.6009,1.602,1.6049,1.617,1.6176,1.6092,1.6097,1.61,1.6102,0,0,0,0,0,0,0,1.5663,1.568,1.5846,1.5812,1.5816,1.582,1.5832,1.5914,1.5959,1.5889,1.5889,1.5903,1.601,1.6041,1.6052,1.6178,1.6092,1.6099,1.6103,1.6106,1.6388,1.639,0,0,0,0,0,0,1.5651,1.5674,1.5842,1.585,1.5736,1.5826,1.584,1.588,1.5958,1.5968,1.5905,1.5903,1.6029,1.6043,1.6057,1.6177,1.61,1.6107,1.6111,1.6385,1.6388,1.6391,0,0,0,0,0,0,1.5646,1.5666,1.5837,1.5762,1.5784,1.5832,1.5877,1.5883,1.5915,1.5971,1.598,1.5928,1.6028,1.6046,1.6137,1.6182,1.611,1.6117,1.6381,1.6386,1.639,1.6416,0,0,0,0,0,0,1.5639,1.5664,1.5699,1.5763,1.5788,1.5913,1.5879,1.5888,1.5927,1.5925,1.5995,1.6004,1.6028,1.6126,1.6145,1.6191,1.6123,1.6378,1.6383,1.6388,1.6412,1.6421,1.6429,0,0,0,0,0,1.5631,1.5702,1.5701,1.5721,1.5832,1.5916,1.5931,1.5954,1.593,1.5968,1.6004,1.6002,1.6173,1.6135,1.6157,1.6206,1.6375,1.6382,1.6388,1.6408,1.6419,1.6428,0,0,0,0,0,0,1.5645,1.5711,1.571,1.5803,1.5854,1.5916,1.5963,1.5964,1.6024,1.6021,1.6049,1.6065,1.6157,1.619,1.6147,1.6304,1.6272,1.6283,1.6279,1.629,1.6299,1.629,1.613,0,0,0,0,0,1.5658,1.5718,1.5773,1.5851,1.5876,1.5915,1.5952,1.5965,1.602,1.6042,1.6085,1.614,1.6207,1.625,1.6314,1.6415,1.6433,1.646,1.6468,1.6475,1.6486,1.6545,1.6559,1.6413,1.6413,1.6412,0,0,1.5688,1.5731,1.5767,1.5855,1.5895,1.5959,1.5933,1.6001,1.6051,1.6053,1.6142,1.6176,1.6239,1.6337,1.6382,1.6368,1.6529,1.6483,1.6488,1.6495,1.6553,1.6567,1.658,1.6417,1.6416,1.6416,0,0,1.5774,1.5811,1.5881,1.5922,1.5983,1.6009,1.6026,1.6088,1.611,1.6199,1.6203,1.6263,1.6375,1.6422,1.646,1.6565,1.6567,1.6585,1.6631,1.6689,1.6701,1.6711,1.6752,1.6766,1.6594,1.6595,1.6595,0,1.5804,1.5898,1.5918,1.5987,1.6027,1.6029,1.6102,1.6142,1.6222,1.6251,1.6232,1.6375,1.6418,1.6528,1.6554,1.6583,1.6607,1.6579,1.6697,1.6707,1.6718,1.6757,1.6772,1.6597,1.6596,1.6596,1.6596,0,1.5933,1.5999,1.6048,1.6123,1.6168,1.6239,1.6272,1.6316,1.6326,1.6354,1.6447,1.6498,1.6574,1.66,1.6611,1.6713,1.6703,1.669,1.6659,1.6733,1.6771,1.6786,1.66,1.6599,1.6598,1.6598,0,0,1.6034,1.6118,1.6136,1.6172,1.624,1.6292,1.6364,1.6436,1.6475,1.653,1.6594,1.6689,1.6678,1.6722,1.6738,1.6788,1.6872,1.677,1.6772,1.679,1.6992,1.7004,1.7021,1.6873,1.6875,1.6878,1.6988,0,1.613,1.6255,1.6276,1.6387,1.645,1.6454,1.6518,1.6568,1.6597,1.6657,1.6689,1.6758,1.6737,1.6763,1.6813,1.6851,1.6914,1.6843,1.6936,1.6939,1.6923,1.704,1.7052,1.7153,1.7003,1.7005,1.7007,0,1.6259,1.6316,1.6434,1.6495,1.6522,1.6578,1.6647,1.6703,1.6761,1.6779,1.6828,1.6838,1.6916,1.6879,1.699,1.6941,1.698,1.7005,1.701,1.7022,1.698,1.7059,1.7186,1.7202,1.703,1.7028,1.7026,0,1.6325,1.6431,1.6516,1.6545,1.6618,1.6658,1.6691,1.6746,1.6789,1.6849,1.6878,1.6948,1.6987,1.7042,1.7073,1.7042,1.7183,1.7147,1.7203,1.7203,1.7235,1.7233,1.7374,1.7255,1.7254,1.7254,1.7254,0,1.6433,1.6505,1.6546,1.6599,1.6681,1.6705,1.6787,1.6819,1.6869,1.693,1.6937,1.6995,1.703,1.7094,1.7118,1.7208,1.7225,1.7245,1.7251,1.7246,1.7244,1.7274,1.727,1.7258,1.7257,1.7256,1.7256,0,1.6521,1.6551,1.6644,1.6704,1.6722,1.678,1.6834,1.6887,1.6915,1.6993,1.7012,1.7058,1.7134,1.7168,1.7263,1.7279,1.7383,1.7382,1.7363,1.7366,1.7421,1.7417,1.7589,1.7615,1.7475,1.7476,1.7477,0,1.6589,1.6645,1.6711,1.6752,1.6785,1.685,1.6893,1.6919,1.6965,1.7036,1.7081,1.7156,1.7218,1.734,1.7384,1.7457,1.7461,1.7516,1.7472,1.7466,1.7466,1.7463,1.7471,1.7525,1.7526,1.7527,1.7528,0,1.6708,1.672,1.6781,1.6848,1.6899,1.6953,1.7006,1.704,1.7074,1.7126,1.7202,1.725,1.7346,1.7422,1.7498,1.7535,1.754,1.7541,1.7559,1.7556,1.7544,1.7555,1.7388,1.7538,1.7537,1.7536,1.7536,1.7535,1.6791,1.6842,1.6897,1.6965,1.7008,1.7058,1.7111,1.7145,1.7209,1.7287,1.7299,1.7382,1.7441,1.7543,1.7583,1.765,1.7637,1.7662,1.7669,1.7675,1.768,1.753,1.7664,1.7663,1.7663,1.7663,1.7663,0,1.6914,1.6949,1.7011,1.7085,1.714,1.7135,1.7194,1.7241,1.7313,1.7367,1.7427,1.7517,1.7591,1.764,1.7717,1.7761,1.7766,1.7781,1.778,1.7789,1.7686,1.7664,1.7776,1.7776,1.7776,1.7776,1.7776,1.7776,1.6984,1.7071,1.709,1.7199,1.7234,1.7314,1.7348,1.7396,1.7439,1.7538,1.7599,1.7629,1.7683,1.7763,1.7832,1.7845,1.7875,1.7891,1.7904,1.7808,1.7796,1.7785,1.7765,1.7896,1.7896,1.8002,1.8003,1.8004]},{"header":{"parameterUnit":"m.s-1","parameterCategory":1,"la1":30.2991,"la2":30.254,"lo1":-89.0895,"lo2":-89.0444,"dy":0.0017,"dx":0.0017,"nx":28,"ny":28,"refTime":"2024-02-26T09:00:00:Z","depth":0,"parameterNumber":3,"parameterNumberName":"V-component_of_WINDS"},"data":[0,0,0,0,0,0,0,0,0,0,0,0,0,0,0,0,0,0,0,0,0,0,0,0,0,0,0,0,0,0,0,0,0,0,0,0,0,0,0,0,0,0,0,0,0,0,0,0,0,0,0,0,0,0,0,0,0,0,5.2443,5.2443,0,5.2519,5.252,5.2521,5.2494,5.2492,5.249,5.2489,5.2561,5.2564,5.2568,0,0,0,0,0,0,0,0,0,0,0,0,0,5.2266,5.227,5.2442,5.2443,5.2444,5.2519,5.252,5.2521,5.2494,5.2492,5.249,5.2488,5.256,5.2564,5.2568,0,0,0,0,0,0,0,0,0,0,0,0,0,5.2343,5.2271,5.2442,5.244,5.2441,5.2519,5.252,5.2522,5.2495,5.2492,5.2489,5.2487,5.2558,5.2563,5.2568,5.2652,0,0,5.2584,5.2587,0,0,0,0,0,0,0,0,5.2339,5.2349,5.2439,5.244,5.2441,5.2495,5.2485,5.2565,5.2495,5.2474,5.2489,5.2486,5.254,5.2547,5.2567,5.2655,5.2658,5.2585,5.2588,5.259,5.2592,0,0,0,0,0,0,0,5.2333,5.2346,5.2473,5.2441,5.2442,5.2433,5.2441,5.25,5.252,5.2475,5.2474,5.2484,5.254,5.2562,5.2568,5.2659,5.2585,5.2589,5.2593,5.2595,5.2821,5.2824,0,0,0,0,0,0,5.2328,5.2342,5.247,5.2475,5.2383,5.2439,5.2448,5.248,5.2519,5.2523,5.2486,5.2482,5.2554,5.2562,5.2571,5.2672,5.259,5.2595,5.2598,5.2818,5.2822,5.2825,0,0,0,0,0,0,5.2325,5.234,5.2467,5.2408,5.2424,5.2444,5.2481,5.2483,5.2504,5.2527,5.253,5.2504,5.2552,5.2563,5.2633,5.2674,5.2598,5.2602,5.2815,5.2819,5.2823,5.2875,0,0,0,0,0,0,5.232,5.2339,5.2372,5.2409,5.2427,5.253,5.2483,5.2486,5.2514,5.251,5.2545,5.2549,5.2551,5.2625,5.2638,5.268,5.2606,5.2811,5.2817,5.2822,5.287,5.288,5.289,0,0,0,0,0,5.2314,5.2382,5.2374,5.239,5.2469,5.2532,5.2542,5.2545,5.2518,5.255,5.2565,5.2548,5.2667,5.2632,5.2646,5.2691,5.2809,5.2815,5.2821,5.2865,5.2878,5.289,0,0,0,0,0,0,5.2346,5.2386,5.2378,5.2461,5.2494,5.2528,5.2569,5.2559,5.2599,5.2593,5.2593,5.2601,5.2673,5.2688,5.2649,5.2774,5.2734,5.2743,5.2762,5.2775,5.2784,5.278,5.2611,0,0,0,0,0,5.2363,5.2414,5.2445,5.2514,5.2532,5.2548,5.2575,5.2575,5.2608,5.2621,5.2641,5.2672,5.2717,5.2746,5.2789,5.2871,5.2879,5.2909,5.2919,5.2927,5.2936,5.2982,5.2996,5.2846,5.2846,5.2846,0,0,5.2398,5.2427,5.2458,5.2522,5.2547,5.2598,5.2559,5.2614,5.2651,5.2629,5.2697,5.2713,5.2747,5.2824,5.2859,5.2839,5.2979,5.2935,5.2942,5.2946,5.299,5.3004,5.3017,5.285,5.285,5.2849,0,0,5.2489,5.2515,5.2577,5.2604,5.2645,5.2655,5.267,5.2706,5.2717,5.2785,5.277,5.2813,5.289,5.2916,5.2939,5.3041,5.3027,5.3055,5.3108,5.3153,5.3165,5.3175,5.3213,5.3226,5.3063,5.3063,5.3063,0,5.2527,5.2605,5.2609,5.2667,5.2695,5.268,5.2743,5.2768,5.2819,5.2838,5.2816,5.2913,5.2935,5.3019,5.3044,5.3063,5.308,5.3051,5.3163,5.3173,5.3183,5.3219,5.3233,5.3066,5.3066,5.3066,5.3065,0,5.265,5.2704,5.2749,5.2803,5.2836,5.2895,5.2907,5.294,5.2938,5.295,5.302,5.3046,5.3095,5.3114,5.311,5.3198,5.3185,5.3163,5.3122,5.3201,5.3235,5.3248,5.3071,5.307,5.3069,5.3068,0,0,5.2762,5.282,5.2836,5.2861,5.2905,5.2946,5.3004,5.3054,5.3083,5.3118,5.3167,5.3233,5.3214,5.3241,5.324,5.3279,5.336,5.3252,5.3253,5.3273,5.3459,5.3477,5.3493,5.3351,5.3353,5.3355,5.3457,0,5.2858,5.2963,5.297,5.3065,5.3115,5.3102,5.3153,5.3185,5.3198,5.3241,5.3254,5.3303,5.3273,5.3289,5.3327,5.3343,5.3398,5.3335,5.3395,5.3398,5.3389,5.351,5.3528,5.3623,5.347,5.3472,5.3474,0,5.2983,5.3026,5.3127,5.3166,5.3188,5.3234,5.3281,5.3322,5.3358,5.3365,5.3396,5.339,5.3448,5.3405,5.3486,5.3443,5.3468,5.3479,5.3483,5.3489,5.3441,5.3521,5.3653,5.3667,5.3494,5.3493,5.3491,0,5.3056,5.314,5.3212,5.3233,5.328,5.3313,5.3333,5.3366,5.3397,5.3437,5.3456,5.3502,5.3527,5.3561,5.3567,5.3536,5.3649,5.3606,5.3655,5.3656,5.368,5.3679,5.3819,5.3695,5.3694,5.3694,5.3694,0,5.3163,5.3225,5.3246,5.329,5.336,5.3366,5.3434,5.3452,5.3482,5.3528,5.3518,5.3561,5.3567,5.3611,5.3615,5.3682,5.3693,5.3699,5.37,5.3701,5.3701,5.3718,5.3712,5.3698,5.3697,5.3696,5.3696,0,5.3257,5.3273,5.3351,5.339,5.3402,5.3451,5.3484,5.3526,5.3538,5.3597,5.3611,5.3631,5.3683,5.3692,5.3752,5.3755,5.3835,5.3829,5.3825,5.3824,5.3874,5.387,5.4031,5.4053,5.3913,5.3914,5.3916,0,5.3324,5.3373,5.3418,5.3451,5.3474,5.3525,5.3557,5.3564,5.3597,5.3643,5.3679,5.373,5.3772,5.3855,5.3873,5.3919,5.3914,5.3968,5.3921,5.3921,5.3917,5.3915,5.392,5.3977,5.3979,5.398,5.3981,0,5.3442,5.3449,5.3497,5.3548,5.3587,5.3627,5.3665,5.3691,5.3703,5.3741,5.3796,5.3828,5.3891,5.3942,5.3989,5.4008,5.3997,5.3996,5.401,5.4012,5.4008,5.4012,5.3851,5.3992,5.3991,5.399,5.3989,5.3989,5.3526,5.357,5.361,5.3663,5.3693,5.373,5.3772,5.3791,5.3838,5.3892,5.3893,5.3953,5.3987,5.4049,5.4071,5.4117,5.41,5.412,5.4125,5.4131,5.4136,5.4,5.4125,5.4125,5.4125,5.4124,5.4124,0,5.3645,5.3671,5.3721,5.3776,5.3818,5.3807,5.3848,5.3884,5.3938,5.3972,5.4015,5.4078,5.4128,5.4151,5.42,5.4232,5.4228,5.4245,5.4243,5.4248,5.4148,5.4132,5.4247,5.4247,5.4247,5.4247,5.4247,5.4247,5.3712,5.3786,5.3797,5.3885,5.3909,5.3971,5.3996,5.4029,5.4057,5.4129,5.4172,5.4188,5.4217,5.4269,5.4314,5.4319,5.4338,5.4357,5.436,5.4267,5.4254,5.4243,5.4227,5.4361,5.4361,5.4456,5.4457,5.4458]}]]